Flag for Bahamas Weather past 2 weeks in Nassau, Bahamas

Now
86 °F

Thunderstorms. Overcast.


Feels Like: 99 °F
Forecast: 79 / 87 °F
Wind: 3 mph from West

Location: Nassau Airport

Current Time: Sep 30, 2014 at 8:20:17 PM

Latest Report: Sep 30, 2014 at 8:00 PM


Visibility: N/A

Pressure: 29.87 "Hg

Humidity: 79%

Dew point: 79 °F

Location of NassauLocation

Historic Weather in Nassau — Graph

°F

Nassau temperature yesterday

Maximum temperature yesterday: 90 °F (at 2:00 PM)
Minimum temperature yesterday: 79 °F (at 6:00 AM)
Average temperature yesterday: 84 °F

Past Weeks' High & Low Weather Summary

 TemperatureHumidityPressure
High91 °F (Sep 20, 2:00 PM)100% (Sep 18, 11:00 PM)30.12 "Hg (Sep 18, 11:00 PM)
Low75 °F (Sep 17, 9:00 PM)55% (Sep 16, 4:00 PM)29.83 "Hg (Sep 30, 4:00 PM)
Average83 °F78%29.97 "Hg
* Reported Sep 15 7:00 PM — Sep 30 7:00 PM, Nassau, Weather by CustomWeather, © 2014

Note: Actual official high and low records may vary slightly from our data, if they occured in-between our weather recording intervals... More about our weather records

Advertising

Nassau weather history for previous 24 hours

 ConditionsComfort  
Time TempWeatherWind HumidityBarometerVisibility
7:00 PM
Sep 30
86 °FThunderstorms. Broken clouds.7 mph70%29.85 "HgN/A
6:00 PM88 °FThunderstorms. Scattered clouds.9 mph66%29.85 "HgN/A
5:15 PM88 °FThunderstorms. Passing clouds.N/A66%29.85 "HgN/A
5:00 PM91 °FThunderstorms. Scattered clouds.12 mph71%29.83 "HgN/A
4:00 PM86 °FRain showers. Partly sunny.10 mph70%29.83 "HgN/A
3:00 PM90 °FBroken clouds.12 mph63%29.84 "HgN/A
2:00 PM91 °FBroken clouds.14 mph67%29.86 "HgN/A
11:00 AM90 °FScattered clouds.9 mph71%29.91 "HgN/A
10:00 AM84 °FScattered clouds.9 mph74%29.90 "HgN/A
9:00 AM82 °FScattered clouds.7 mph79%29.89 "HgN/A
8:00 AM81 °FPartly cloudy.2 mph94%29.90 "HgN/A
7:00 AM81 °FPartly cloudy.5 mph84%29.88 "HgN/A
6:00 AM81 °FPassing clouds.5 mph84%29.86 "HgN/A
5:00 AM84 °FPassing clouds.3 mph79%29.86 "HgN/A
4:00 AM82 °FPartly cloudy.5 mph79%29.84 "HgN/A
3:00 AM81 °FPartly cloudy.No wind84%29.85 "HgN/A
2:00 AM81 °FSprinkles. Passing clouds.5 mph89%29.89 "Hg6 mi
1:00 AM81 °FPartly cloudy.3 mph84%29.94 "HgN/A
12:00 AM82 °FThundershowers. Partly cloudy.5 mph79%29.90 "HgN/A
11:00 PM
Sep 29
82 °FThundershowers. Passing clouds.No wind84%29.91 "HgN/A
10:00 PM82 °FPassing clouds.No wind79%29.91 "HgN/A
9:00 PM82 °FPassing clouds.2 mph79%29.90 "HgN/A
8:00 PM84 °FPassing clouds.5 mph84%29.87 "HgN/A
Weather by CustomWeather, © 2014

See weather overviewHow to use our weather pages